Time,TemperatureF,DewpointF,PressureIn,WindDirection,WindDirectionDegrees,WindSpeedMPH,WindSpeedGustMPH,Humidity,HourlyPrecipIn,Conditions,Clouds,dailyrainin,SolarRadiationWatts/m^2,SoftwareType,DateUTC
2013-07-15 00:21:00,64.0,62.0,-100.00,West,267,2.0,8.0,94,0.00,,,0.00,0.000000,,2013-07-15 07:21:00,
2013-07-15 00:32:00,64.0,62.0,-100.00,West,267,2.0,8.0,94,0.00,,,0.00,0.000000,,2013-07-15 07:32:00,
2013-07-15 00:43:00,64.0,62.0,-100.00,West,267,2.0,8.0,94,0.00,,,0.00,0.000000,,2013-07-15 07:43:00,
2013-07-15 00:51:00,63.0,62.0,-100.00,NE,37,0.0,3.0,96,0.00,,,0.00,0.000000,,2013-07-15 07:51:00,
2013-07-15 01:22:00,63.0,62.0,-100.00,NE,37,0.0,3.0,96,0.00,,,0.00,0.000000,,2013-07-15 08:22:00,
2013-07-15 01:32:00,63.0,62.0,-100.00,NE,37,0.0,3.0,96,0.00,,,0.00,0.000000,,2013-07-15 08:32:00,
2013-07-15 01:43:00,63.0,62.0,-100.00,NE,37,0.0,3.0,96,0.00,,,0.00,0.000000,,2013-07-15 08:43:00,
2013-07-15 01:51:00,63.0,62.0,-100.00,ENE,73,2.0,3.0,97,0.00,,,0.00,0.000000,,2013-07-15 08:51:00,
2013-07-15 02:11:00,63.0,62.0,-100.00,ENE,73,2.0,3.0,97,0.00,,,0.00,0.000000,,2013-07-15 09:11:00,
2013-07-15 02:22:00,63.0,62.0,-100.00,ENE,73,2.0,3.0,97,0.00,,,0.00,0.000000,,2013-07-15 09:22:00,
2013-07-15 02:32:00,63.0,62.0,-100.00,ENE,73,2.0,3.0,97,0.00,,,0.00,0.000000,,2013-07-15 09:32:00,
2013-07-15 02:42:00,63.0,62.0,-100.00,ENE,73,2.0,3.0,97,0.00,,,0.00,0.000000,,2013-07-15 09:42:00,
2013-07-15 02:51:00,62.0,61.0,-100.00,East,81,3.0,5.0,98,0.00,,,0.00,0.000000,,2013-07-15 09:51:00,
2013-07-15 03:11:00,62.0,61.0,-100.00,East,81,3.0,5.0,98,0.00,,,0.00,0.000000,,2013-07-15 10:11:00,
2013-07-15 03:21:00,62.0,61.0,-100.00,East,81,3.0,5.0,98,0.00,,,0.00,0.000000,,2013-07-15 10:21:00,
2013-07-15 03:32:00,62.0,61.0,-100.00,East,81,3.0,5.0,98,0.00,,,0.00,0.000000,,2013-07-15 10:32:00,
2013-07-15 03:42:00,62.0,61.0,-100.00,East,81,3.0,5.0,98,0.00,,,0.00,0.000000,,2013-07-15 10:42:00,
2013-07-15 03:51:00,62.0,61.0,-100.00,ESE,107,1.0,6.0,98,0.00,,,0.00,0.000000,,2013-07-15 10:51:00,
2013-07-15 04:11:00,62.0,61.0,-100.00,ESE,107,1.0,6.0,98,0.00,,,0.00,0.000000,,2013-07-15 11:11:00,
2013-07-15 04:22:00,62.0,61.0,-100.00,ESE,107,1.0,6.0,98,0.00,,,0.00,0.000000,,2013-07-15 11:22:00,
2013-07-15 04:32:00,62.0,61.0,-100.00,ESE,107,1.0,6.0,98,0.00,,,0.00,0.000000,,2013-07-15 11:32:00,
2013-07-15 04:42:00,62.0,61.0,-100.00,ESE,107,1.0,6.0,98,0.00,,,0.00,0.000000,,2013-07-15 11:42:00,
2013-07-15 04:51:00,61.0,60.0,-100.00,ENE,65,2.0,3.0,96,0.00,,,0.00,0.000000,,2013-07-15 11:51:00,
2013-07-15 05:11:00,61.0,60.0,-100.00,ENE,65,2.0,3.0,96,0.00,,,0.00,0.000000,,2013-07-15 12:11:00,
2013-07-15 05:22:00,61.0,60.0,-100.00,ENE,65,2.0,3.0,96,0.00,,,0.00,0.000000,,2013-07-15 12:22:00,
2013-07-15 05:32:00,61.0,60.0,-100.00,ENE,65,2.0,3.0,96,0.00,,,0.00,0.000000,,2013-07-15 12:32:00,
2013-07-15 05:42:00,61.0,60.0,-100.00,ENE,65,2.0,3.0,96,0.00,,,0.00,0.000000,,2013-07-15 12:42:00,
2013-07-15 05:51:00,62.0,61.0,-100.00,ENE,65,0.0,3.0,96,0.00,,,0.00,0.000000,,2013-07-15 12:51:00,
2013-07-15 06:22:00,62.0,61.0,-100.00,ENE,65,0.0,3.0,96,0.00,,,0.00,0.000000,,2013-07-15 13:22:00,
2013-07-15 06:32:00,62.0,61.0,-100.00,ENE,65,0.0,3.0,96,0.00,,,0.00,0.000000,,2013-07-15 13:32:00,
2013-07-15 06:43:00,62.0,61.0,-100.00,ENE,65,0.0,3.0,96,0.00,,,0.00,0.000000,,2013-07-15 13:43:00,
2013-07-15 06:51:00,63.0,62.0,-100.00,SE,131,0.0,3.0,96,0.00,,,0.00,25.000000,,2013-07-15 13:51:00,
2013-07-15 07:22:00,63.0,62.0,-100.00,SE,131,0.0,3.0,96,0.00,,,0.00,25.000000,,2013-07-15 14:22:00,
2013-07-15 07:33:00,63.0,62.0,-100.00,SE,131,0.0,3.0,96,0.00,,,0.00,25.000000,,2013-07-15 14:33:00,
2013-07-15 07:42:00,63.0,62.0,-100.00,SE,131,0.0,3.0,96,0.00,,,0.00,25.000000,,2013-07-15 14:42:00,
2013-07-15 07:51:00,67.0,62.0,-100.00,WNW,289,1.0,4.0,85,0.00,,,0.00,171.000000,,2013-07-15 14:51:00,
2013-07-15 08:24:00,67.0,62.0,-100.00,WNW,289,1.0,4.0,85,0.00,,,0.00,171.000000,,2013-07-15 15:24:00,
2013-07-15 08:35:00,67.0,62.0,-100.00,WNW,289,1.0,4.0,85,0.00,,,0.00,171.000000,,2013-07-15 15:35:00,
2013-07-15 08:44:00,67.0,62.0,-100.00,WNW,289,1.0,4.0,85,0.00,,,0.00,171.000000,,2013-07-15 15:44:00,
2013-07-15 08:51:00,70.0,62.0,-100.00,West,268,5.0,8.0,77,0.00,,,0.00,356.000000,,2013-07-15 15:51:00,
2013-07-15 09:24:00,70.0,62.0,-100.00,West,268,5.0,8.0,77,0.00,,,0.00,356.000000,,2013-07-15 16:24:00,
2013-07-15 09:32:00,70.0,62.0,-100.00,West,268,5.0,8.0,77,0.00,,,0.00,356.000000,,2013-07-15 16:32:00,
2013-07-15 09:44:00,70.0,62.0,-100.00,West,268,5.0,8.0,77,0.00,,,0.00,356.000000,,2013-07-15 16:44:00,
2013-07-15 09:51:00,76.0,60.0,-100.00,West,281,4.0,9.0,57,0.00,,,0.00,572.000000,,2013-07-15 16:51:00,
2013-07-15 10:13:00,76.0,60.0,-100.00,West,281,4.0,9.0,57,0.00,,,0.00,572.000000,,2013-07-15 17:13:00,
2013-07-15 10:23:00,76.0,60.0,-100.00,West,281,4.0,9.0,57,0.00,,,0.00,572.000000,,2013-07-15 17:23:00,
2013-07-15 10:35:00,76.0,60.0,-100.00,West,281,4.0,9.0,57,0.00,,,0.00,572.000000,,2013-07-15 17:35:00,
2013-07-15 10:45:00,76.0,60.0,-100.00,West,281,4.0,9.0,57,0.00,,,0.00,572.000000,,2013-07-15 17:45:00,
2013-07-15 10:51:00,80.0,61.0,-100.00,West,266,8.0,11.0,52,0.00,,,0.00,734.000000,,2013-07-15 17:51:00,
2013-07-15 11:34:00,80.0,61.0,-100.00,West,266,8.0,11.0,52,0.00,,,0.00,734.000000,,2013-07-15 18:34:00,
2013-07-15 11:45:00,80.0,61.0,-100.00,West,266,8.0,11.0,52,0.00,,,0.00,734.000000,,2013-07-15 18:45:00,
2013-07-15 11:51:00,83.0,62.0,-100.00,WSW,251,10.0,15.0,49,0.00,,,0.00,856.000000,,2013-07-15 18:51:00,
2013-07-15 12:11:00,83.0,62.0,-100.00,WSW,251,10.0,15.0,49,0.00,,,0.00,856.000000,,2013-07-15 19:11:00,
2013-07-15 12:24:00,83.0,62.0,-100.00,WSW,251,10.0,15.0,49,0.00,,,0.00,856.000000,,2013-07-15 19:24:00,
2013-07-15 12:34:00,83.0,62.0,-100.00,WSW,251,10.0,15.0,49,0.00,,,0.00,856.000000,,2013-07-15 19:34:00,
2013-07-15 12:44:00,83.0,62.0,-100.00,WSW,251,10.0,15.0,49,0.00,,,0.00,856.000000,,2013-07-15 19:44:00,
2013-07-15 12:51:00,83.0,61.0,-100.00,WSW,248,12.0,17.0,48,0.00,,,0.00,921.000000,,2013-07-15 19:51:00,
2013-07-15 13:24:00,83.0,61.0,-100.00,WSW,248,12.0,17.0,48,0.00,,,0.00,921.000000,,2013-07-15 20:24:00,
2013-07-15 13:34:00,83.0,61.0,-100.00,WSW,248,12.0,17.0,48,0.00,,,0.00,921.000000,,2013-07-15 20:34:00,
2013-07-15 13:43:00,83.0,61.0,-100.00,WSW,248,12.0,17.0,48,0.00,,,0.00,921.000000,,2013-07-15 20:43:00,
2013-07-15 13:51:00,84.0,61.0,-100.00,WSW,258,13.0,17.0,46,0.00,,,0.00,933.000000,,2013-07-15 20:51:00,
2013-07-15 14:12:00,84.0,61.0,-100.00,WSW,258,13.0,17.0,46,0.00,,,0.00,933.000000,,2013-07-15 21:12:00,
2013-07-15 14:23:00,84.0,61.0,-100.00,WSW,258,13.0,17.0,46,0.00,,,0.00,933.000000,,2013-07-15 21:23:00,
2013-07-15 14:34:00,84.0,61.0,-100.00,WSW,258,13.0,17.0,46,0.00,,,0.00,933.000000,,2013-07-15 21:34:00,
2013-07-15 14:51:00,85.0,59.0,-100.00,WSW,246,12.0,18.0,42,0.00,,,0.00,894.000000,,2013-07-15 21:51:00,
2013-07-15 15:22:00,85.0,59.0,-100.00,WSW,246,12.0,18.0,42,0.00,,,0.00,894.000000,,2013-07-15 22:22:00,
2013-07-15 15:34:00,85.0,59.0,-100.00,WSW,246,12.0,18.0,42,0.00,,,0.00,894.000000,,2013-07-15 22:34:00,
2013-07-15 15:43:00,85.0,59.0,-100.00,WSW,246,12.0,18.0,42,0.00,,,0.00,894.000000,,2013-07-15 22:43:00,
2013-07-15 15:51:00,85.0,60.0,-100.00,WSW,241,12.0,18.0,43,0.00,,,0.00,800.000000,,2013-07-15 22:51:00,
2013-07-15 16:24:00,85.0,60.0,-100.00,WSW,241,12.0,18.0,43,0.00,,,0.00,800.000000,,2013-07-15 23:24:00,
2013-07-15 16:44:00,85.0,60.0,-100.00,WSW,241,12.0,18.0,43,0.00,,,0.00,800.000000,,2013-07-15 23:44:00,
2013-07-15 16:51:00,89.0,58.0,-100.00,West,277,12.0,18.0,35,0.00,,,0.00,657.000000,,2013-07-15 23:51:00,
2013-07-15 17:33:00,89.0,58.0,-100.00,West,277,12.0,18.0,35,0.00,,,0.00,657.000000,,2013-07-16 00:33:00,
2013-07-15 17:51:00,86.0,53.0,-100.00,WNW,283,10.0,18.0,32,0.00,,,0.00,484.000000,,2013-07-16 00:51:00,
2013-07-15 18:13:00,86.0,53.0,-100.00,WNW,283,10.0,18.0,32,0.00,,,0.00,484.000000,,2013-07-16 01:13:00,
2013-07-15 18:33:00,86.0,53.0,-100.00,WNW,283,10.0,18.0,32,0.00,,,0.00,484.000000,,2013-07-16 01:33:00,
2013-07-15 18:44:00,86.0,53.0,-100.00,WNW,283,10.0,18.0,32,0.00,,,0.00,484.000000,,2013-07-16 01:44:00,
2013-07-15 18:51:00,82.0,50.0,-100.00,WSW,257,10.0,16.0,33,0.00,,,0.00,290.000000,,2013-07-16 01:51:00,
2013-07-15 19:24:00,82.0,50.0,-100.00,WSW,257,10.0,16.0,33,0.00,,,0.00,290.000000,,2013-07-16 02:24:00,
2013-07-15 19:44:00,82.0,50.0,-100.00,WSW,257,10.0,16.0,33,0.00,,,0.00,290.000000,,2013-07-16 02:44:00,
2013-07-15 20:13:00,75.0,50.0,-100.00,WSW,249,9.0,12.0,41,0.00,,,0.00,99.000000,,2013-07-16 03:13:00,
2013-07-15 20:35:00,75.0,50.0,-100.00,WSW,249,9.0,12.0,41,0.00,,,0.00,99.000000,,2013-07-16 03:35:00,